Location: Fort Wayne
(41.1310°N, 85.1290°W)
Time: 16:09:15
(UTC-04:00)

Iridium 37 - Visible Passes

Search period start: 25 August 2016 00:00
Search period end: 04 September 2016 00:00
Orbit: 776 x 779 km, 86.4° (Epoch: 25 August)

Date Brightness Start Highest point End Pass type
(mag) Time Alt. Az. Time Alt. Az. Time Alt. Az.
25 Aug 8.5 22:00:05 10° NW 22:02:49 14° WNW 22:05:32 10° WSW visible
26 Aug 7.9 21:25:21 10° NNW 21:29:37 26° W 21:33:52 10° SW visible
27 Aug 6.7 20:51:17 10° NNW 20:56:17 47° W 21:01:16 10° SSW visible
29 Aug 8.4 21:26:03 10° NW 21:29:32 18° W 21:33:01 10° WSW visible
30 Aug 7.6 20:51:39 10° NNW 20:56:17 33° W 21:00:54 10° SSW visible
01 Sep 8.8 21:27:15 10° NW 21:29:25 13° WNW 21:31:35 10° W visible
02 Sep 8.3 20:52:12 10° NNW 20:56:14 23° W 21:00:17 10° SW visible
